User: anonymous
Location: Oshawa
(43.9000°N, 78.8670°W)
Time: 15:42:35
(UTC-04:00)
Language:

Cosmos 1500 - Orbit

View from above orbital plane
View from above orbital plane
View from above satellite
View from above satellite

Ground track
Ground track

The orbit data is extracted from the following two-line orbital elements,

1 14372U 83099A   14261.48875207  .00004931  00000-0  28672-3 0  6308
2 14372 082.5136 251.5493 0016050 328.6691 148.5979 15.11756414685928
Epoch (UTC): 18 September 2014 11:43:48
Eccentricity: 0.0016050
inclination: 82.5136°
perigee height: 520 km
apogee height: 542 km
right ascension of ascending node: 251.5493°
argument of perigee: 328.6691°
revolutions per day: 15.11756414
mean anomaly at epoch: 148.5979°
orbit number at epoch: 68592

The dashed part of the orbit path shows where the satellite is in the earth's shadow,  

DLR